Temp_Advection
nan nan nan nan nan nan nan nan nan nan nan nan nan nan nan nan nan nan nan nan nan nan nan nan nan nan nan nan nan nan nan nan nan nan nan nan nan nan nan nan nan nan nan nan
nan -1 -1 -0 0 1 0 -0 -1 -0 0 0 -1 -0 -0 -1 -0 -0 -0 -1 -1 -1 -1 -0 -0 -0 -0 -0 0 0 0 -1 -1 0 -0 0 0 0 0 -0 -0 -0 -0 nan
nan -0 0 1 1 0 -0 -1 -0 -0 1 0 -1 -0 0 -1 0 -0 -0 -0 -0 -1 -0 -0 -0 -0 -0 -0 0 -0 -0 -2 -0 -0 0 0 -0 -0 -0 -0 -0 -0 -0 nan
nan 0 0 1 -0 -1 -1 -1 0 0 -0 -1 -0 0 -1 -0 -0 -0 -1 -1 -1 -0 -0 -1 -0 -0 -0 0 -0 0 -0 -1 0 -1 -0 -0 -1 -1 -0 -0 -0 0 -0 nan
nan 0 -0 -0 -1 -0 -1 -0 0 0 -0 -1 -0 -0 -1 0 -0 -1 -1 -1 -0 -0 -0 -0 -0 -0 -0 0 -0 0 -0 -1 -1 -0 -1 -0 -0 -0 0 0 0 -0 -0 nan
nan -0 -0 -0 -0 -0 -0 0 0 0 0 -0 -1 -1 -0 -0 -1 -1 -1 -0 -0 -0 -0 -0 -0 -0 0 0 0 0 -1 -1 -1 0 0 -0 -1 0 0 0 -0 -0 -0 nan
nan -0 -0 -0 -0 -0 0 -0 0 0 -0 -2 -1 0 -1 -1 -0 0 0 0 -0 -0 -0 -0 -0 -0 -0 0 0 0 -0 -1 -0 -0 -0 -1 -0 1 0 -0 -0 -0 -0 nan
nan -0 -0 1 -0 0 -0 -0 -0 -1 -1 -1 -0 -1 -2 -1 -0 1 1 -0 -0 -0 -0 -0 -0 -0 0 0 0 0 -0 -1 -0 0 -0 -0 1 0 -0 -1 -0 0 0 nan
nan 0 -0 -0 -0 0 0 -1 -1 -1 -0 -0 0 -1 -1 1 1 0 -0 -0 -0 -0 -0 0 0 0 0 0 0 0 -0 -0 0 0 -1 0 0 -0 -0 -0 -0 0 -0 nan
nan -1 -1 0 -0 -1 -2 -0 1 0 1 -1 -0 -0 -0 0 -0 -0 -0 0 -0 0 0 0 0 -0 -0 -0 -0 0 -0 0 0 -1 0 0 0 0 0 0 -1 -0 -1 nan
nan -0 0 0 -1 -1 0 0 -1 -0 0 -0 -1 -1 -1 -0 -0 -0 -0 -0 0 0 -0 0 -0 0 -0 -0 -0 -0 -0 -1 -0 -0 -0 -1 0 -1 0 -1 -1 -1 -0 nan
nan -0 -0 -2 -1 0 -0 -1 -0 0 -1 -1 -1 -1 0 -0 0 0 0 -0 0 0 0 -0 -0 -0 -0 -0 -0 -1 -1 -1 -1 -1 -1 -0 -0 0 0 -2 -1 -0 -0 nan
nan 0 -0 -1 -0 0 0 -1 -1 -1 -0 1 -0 -1 -1 0 0 0 0 0 0 0 1 0 0 0 0 -0 -0 -0 -1 -1 -1 -0 -0 0 -1 -0 -3 -2 -0 -0 -0 nan
nan -1 -1 -1 -1 -1 -0 -1 -1 -1 -0 -1 -1 -1 0 0 -0 0 0 -0 0 1 1 1 1 0 1 0 0 0 -1 -0 -1 -0 -1 -1 -3 -2 -2 -1 -0 -0 -0 nan
nan -0 -0 -0 -0 -0 -0 -0 -0 -1 -2 -2 -1 -0 -1 -0 0 0 0 0 0 0 0 1 1 1 1 0 1 0 0 0 0 0 -0 -1 -2 -1 -1 -0 -0 -0 -0 nan
nan -0 -0 -1 -1 -0 -1 -1 -0 -1 -1 -1 -2 -3 -1 1 0 -0 0 0 -0 0 0 0 1 1 0 1 1 0 1 0 1 1 1 -2 -2 -0 -0 -0 -0 -0 -0 nan
nan -0 -0 -1 -1 0 -1 -2 -1 -1 -1 -1 -1 -2 -1 0 1 0 0 -0 -0 0 0 0 -0 0 1 0 0 0 -0 1 1 1 0 -2 -1 -1 -0 -0 -0 -0 -0 nan
nan -0 -1 -1 -0 -1 -2 -1 1 2 -0 -0 -1 -1 0 -0 0 0 -0 -0 -1 -0 -0 -0 -0 -0 -0 -0 0 0 0 1 1 1 -1 -3 -2 -0 0 0 0 0 0 nan
nan -0 -0 -1 -1 -1 1 -2 -2 -2 -2 1 0 0 1 -0 -1 0 -1 -1 -1 -1 -1 -1 -1 -0 -0 -0 0 0 1 1 1 -1 -3 -2 -0 0 1 0 -1 0 0 nan
nan 1 0 -0 0 0 -1 -0 -2 -1 -0 1 0 -0 -0 -1 -1 1 -1 -1 -1 -1 -1 -1 -1 -1 -1 -1 -0 0 1 1 0 -1 0 2 1 0 0 -0 -0 -0 -0 nan
nan 0 -1 -0 -0 -0 -0 0 -1 -0 0 -1 -0 -0 -1 -0 -1 -2 -1 -0 -1 -1 -1 -1 -1 -1 -1 -1 -1 0 1 1 1 1 1 1 -1 0 1 -0 -0 0 1 nan
nan -0 -0 -0 -0 1 -1 -0 0 -1 -2 -1 -1 -1 -0 -0 -1 -1 -0 -0 -1 -1 -1 -1 -1 -1 -0 -0 -0 2 2 1 1 0 0 -0 -1 2 -0 -1 1 1 0 nan
nan 0 -0 -0 0 -0 -0 -0 -0 -0 -1 -1 -0 -1 -1 -0 -0 -0 -0 -0 -0 -0 -0 0 -0 0 0 1 1 2 1 1 0 0 1 -0 0 1 -0 2 2 1 2 nan
nan -0 -0 -0 -0 0 -0 -0 -0 -0 -0 -0 -0 -0 -0 -1 -0 -0 -0 -0 1 1 -1 -1 -0 1 1 1 1 1 1 1 0 0 0 -0 1 1 1 1 0 0 0 nan
nan -0 -0 -0 -0 -0 -0 -0 -0 -0 -0 -0 -0 -0 -0 -0 -0 -0 -0 0 -0 0 -0 -0 -1 0 1 1 2 1 0 0 0 0 -0 -0 0 0 -0 -1 -0 -0 -0 nan
nan nan nan nan nan nan nan nan nan nan nan nan nan nan nan nan nan nan nan nan nan nan nan nan nan nan nan nan nan nan nan nan nan nan nan nan nan nan nan nan nan nan nan nan
Wind_Speed
17 15 20 20 18 17 8 12 18 14 11 15 17 14 14 15 17 20 23 27 30 33 33 31 31 30 29 27 26 25 25 23 23 22 20 17 16 14 11 10 11 9 8 8
12 19 18 16 14 14 16 12 14 14 10 9 17 18 14 17 18 22 24 27 29 30 33 34 32 33 32 30 29 28 27 25 28 22 21 18 16 13 11 10 13 10 9 8
18 5 19 15 15 17 19 19 12 14 12 9 17 17 16 16 17 19 21 24 26 30 34 36 34 35 34 33 32 30 30 29 30 23 22 20 16 14 13 13 12 12 11 9
17 21 7 18 20 18 20 18 16 13 11 14 21 15 21 19 19 19 24 27 29 31 32 34 36 36 38 36 32 31 31 34 33 32 24 24 21 18 16 14 12 11 13 11
11 12 19 17 17 20 16 14 14 17 15 15 16 13 16 24 19 21 24 28 29 31 34 36 39 38 37 36 35 33 31 34 33 36 29 26 24 19 16 16 15 13 12 12
17 7 14 23 18 11 13 16 14 15 16 18 23 18 18 18 22 22 24 28 30 31 34 35 36 35 36 35 35 34 35 40 39 37 38 32 26 23 20 19 16 15 13 13
17 17 17 15 17 20 17 17 10 11 14 21 23 21 18 18 19 21 19 28 31 32 34 35 38 39 38 39 38 37 37 42 43 39 38 39 34 28 23 20 19 17 16 15
9 14 20 18 21 19 23 21 12 20 16 19 23 25 23 26 17 22 25 24 28 29 31 35 38 39 39 40 41 39 39 44 44 43 40 40 37 30 27 24 20 18 17 16
5 12 3 7 14 20 20 23 25 25 16 16 18 20 18 23 28 16 18 21 25 28 31 35 37 39 39 41 44 45 42 44 46 43 43 42 40 38 28 27 24 22 19 17
3 8 8 4 8 19 20 17 21 18 22 22 17 20 20 19 22 26 24 22 24 24 27 31 34 37 39 39 40 41 40 41 44 43 43 43 43 41 39 30 30 25 21 22
5 6 6 5 12 19 17 22 18 20 18 19 18 15 14 21 26 23 24 31 26 22 25 29 33 37 39 37 38 41 39 39 41 45 41 42 41 41 41 37 35 32 28 26
3 7 12 17 14 8 14 14 27 16 28 22 16 15 7 9 19 24 27 30 32 30 27 28 29 32 36 39 40 42 40 39 38 43 48 47 43 43 37 41 38 34 31 29
4 6 9 16 18 18 17 16 19 19 22 26 20 19 9 7 7 21 24 28 24 25 27 26 25 29 35 38 41 42 42 40 38 39 41 43 44 42 41 42 39 36 33 30
3 12 11 13 10 10 5 10 7 17 18 21 21 18 24 16 8 7 9 8 11 15 20 22 24 27 31 36 41 44 42 40 39 38 39 41 48 47 45 44 42 38 35 32
7 14 13 14 15 14 16 18 17 19 18 22 20 22 17 18 19 15 18 7 5 6 13 23 26 27 30 34 38 42 41 40 40 43 41 42 47 47 46 45 42 39 37 34
11 13 11 15 17 18 20 21 20 21 20 19 23 23 20 11 8 12 11 7 9 6 6 10 18 23 27 31 36 39 44 43 43 46 48 46 48 48 47 46 43 41 38 36
12 11 11 15 13 11 16 22 22 22 20 20 23 19 19 9 12 9 8 9 9 8 9 11 12 17 24 29 32 37 44 42 43 47 48 49 49 49 47 45 44 44 41 38
8 11 12 11 10 15 11 16 15 26 20 21 18 23 18 12 9 3 2 6 9 10 11 13 15 18 21 23 26 28 32 41 44 44 47 47 46 47 46 45 44 43 41 40
18 9 7 10 11 15 12 10 10 12 20 9 14 17 18 17 14 9 7 8 11 14 15 16 17 20 19 23 27 30 32 36 41 46 49 49 45 45 45 44 45 43 41 40
17 17 7 11 5 12 7 9 19 10 8 8 9 11 13 15 13 5 12 12 13 14 14 16 18 20 23 25 26 33 35 36 44 47 46 47 45 43 43 43 42 41 40 39
8 6 13 13 9 9 5 8 15 7 2 6 4 4 7 5 7 8 12 12 11 13 15 17 15 17 23 23 28 37 37 41 41 33 33 37 40 41 39 39 37 37 37 34
10 9 9 11 12 14 9 1 4 7 19 9 10 6 4 2 7 12 14 15 16 16 17 15 10 8 10 17 29 35 40 31 29 30 31 35 37 34 31 34 33 33 33 34
5 1 3 4 4 10 6 14 14 13 16 14 10 9 7 4 8 12 15 15 21 21 19 18 15 6 3 11 20 26 29 29 27 29 32 32 31 32 32 33 33 31 33 28
3 4 3 2 2 8 12 10 11 13 12 12 10 9 7 7 9 11 13 17 22 28 31 23 18 20 15 12 12 17 21 25 27 27 27 26 26 25 25 23 24 25 26 27
3 4 2 4 9 11 8 12 10 13 0 4 5 5 8 9 10 13 15 19 20 24 24 27 25 20 21 17 15 12 12 21 23 22 22 21 21 22 21 21 19 21 21 23
13 6 4 2 10 6 8 13 12 13 12 9 7 7 7 10 10 12 16 19 19 19 21 22 25 25 23 18 17 21 19 18 20 21 20 20 20 18 19 19 19 23 24 25
Wind_Direction
195 208 214 214 219 244 309 242 229 210 203 209 218 215 169 183 189 180 183 185 190 194 192 192 192 192 192 194 194 195 194 196 192 193 191 193 191 189 194 199 198 183 185 183
187 227 222 233 222 232 241 241 233 240 205 208 228 219 184 184 198 191 189 191 193 191 192 193 195 195 195 196 197 198 199 200 198 197 192 195 196 200 194 194 192 187 180 188
214 228 220 220 224 221 229 232 229 238 203 217 257 232 219 183 202 195 197 197 196 194 192 194 197 198 198 200 200 202 202 204 203 196 196 196 196 195 198 199 200 201 198 196
234 239 208 213 224 214 232 220 240 247 249 233 213 234 209 204 200 200 197 198 197 197 198 198 198 199 202 202 203 204 205 207 209 206 202 203 200 200 203 199 197 201 208 210
217 221 220 220 227 220 242 243 220 236 247 261 239 235 234 195 199 204 205 203 201 200 199 199 203 204 203 203 204 205 206 208 209 212 203 211 205 209 208 201 205 193 205 210
257 238 243 228 228 227 222 231 233 230 238 240 229 230 226 213 208 204 201 208 204 202 203 204 205 205 205 204 204 205 206 211 212 215 214 213 212 205 206 206 210 210 213 220
220 235 230 241 225 215 210 204 210 210 215 234 223 229 233 225 203 222 207 206 205 204 203 203 203 203 204 204 204 204 206 210 214 215 218 218 217 213 210 210 211 214 217 218
259 227 216 206 229 211 215 217 218 217 212 228 222 230 222 238 270 213 224 205 206 205 206 206 205 204 205 205 205 204 207 210 211 214 216 218 219 216 218 223 215 222 221 225
278 235 39 290 234 237 207 222 231 255 237 246 217 219 240 217 221 214 223 215 201 207 208 208 205 205 204 205 206 206 206 210 211 211 216 218 219 217 219 219 231 225 226 226
88 269 246 242 279 252 254 236 218 234 237 238 227 233 215 209 215 219 219 214 214 210 210 208 207 206 206 205 206 206 207 210 210 211 216 217 219 221 223 227 230 230 227 235
290 242 213 247 219 228 215 237 243 234 226 234 239 222 227 212 213 224 221 219 211 205 206 207 207 208 207 204 202 205 205 206 208 212 212 213 218 222 226 228 235 236 235 236
233 288 256 250 252 291 300 277 222 231 222 234 261 232 137 229 220 216 226 216 222 221 214 212 210 206 205 204 203 203 204 204 207 208 214 218 218 220 221 228 232 235 234 233
177 235 260 240 236 242 251 248 249 250 247 225 224 231 269 196 255 223 223 229 216 221 222 219 212 206 206 205 204 203 204 204 204 206 209 213 216 218 220 226 228 232 233 233
264 262 255 274 355 351 282 267 280 261 242 243 236 235 215 230 228 217 229 241 236 217 227 216 210 207 207 206 206 205 205 204 203 203 206 210 216 217 219 222 225 229 232 234
249 258 258 264 282 276 267 261 257 260 260 254 239 233 236 226 241 257 247 263 259 249 224 218 216 212 208 207 207 207 206 205 203 205 204 210 214 216 219 222 224 227 230 233
233 259 266 269 270 264 263 257 247 249 250 256 262 270 242 219 295 283 267 281 261 241 228 225 223 219 214 211 208 207 204 205 202 205 208 209 215 217 220 224 227 229 230 233
235 254 247 261 265 274 269 246 241 239 230 233 236 238 257 274 261 275 280 268 267 255 250 249 238 227 221 218 213 211 207 204 205 206 208 210 217 217 220 223 226 229 229 230
249 247 261 263 283 247 255 259 246 227 226 227 247 230 263 283 289 217 331 317 298 288 276 261 251 242 231 224 220 215 210 205 205 205 211 214 219 219 218 220 223 226 226 227
215 231 266 249 247 264 284 23 354 357 224 202 252 247 260 269 269 228 5 342 314 301 288 276 263 253 241 226 217 214 207 207 205 206 215 219 219 219 219 219 220 221 222 223
203 211 230 276 263 252 60 340 342 315 229 180 242 248 271 261 236 201 358 353 330 312 301 290 271 259 244 231 211 209 207 205 206 208 214 215 217 217 217 218 218 218 220 222
184 191 224 231 247 272 42 342 329 229 77 0 306 286 289 275 7 13 15 11 355 346 333 314 297 265 247 230 210 207 203 209 211 205 203 209 214 218 219 217 215 217 219 219
182 195 202 231 242 254 24 320 240 337 318 344 329 351 331 26 34 32 26 25 19 20 16 4 348 295 231 211 196 202 201 204 201 202 200 204 212 208 210 215 213 214 215 220
237 240 266 271 223 357 327 283 272 280 291 308 308 317 333 342 20 25 22 24 32 34 28 40 39 57 117 185 190 192 196 197 196 195 199 201 201 203 203 206 206 208 213 211
239 341 252 358 298 284 299 296 306 283 283 300 291 306 331 350 11 18 18 18 31 43 46 37 33 65 90 122 168 193 194 193 192 191 195 193 199 202 200 206 209 209 212 215
272 271 244 244 279 254 306 347 349 16 351 300 304 325 3 0 14 14 18 19 28 32 43 42 48 49 58 76 116 132 179 186 183 182 187 185 187 195 198 196 206 212 214 218
359 1 353 32 10 14 24 8 15 32 26 20 15 3 17 5 9 23 28 25 26 31 35 35 35 55 55 64 85 107 119 152 167 172 170 175 179 186 186 194 207 208 209 218
Height
1491 1492 1483 1478 1481 1476 1478 1470 1474 1470 1469 1477 1475 1475 1484 1494 1497 1502 1508 1513 1519 1524 1531 1537 1542 1547 1552 1557 1562 1565 1570 1573 1576 1580 1583 1587 1590 1593 1595 1597 1598 1599 1601 1602
1488 1483 1478 1479 1480 1485 1485 1484 1481 1469 1469 1480 1469 1471 1472 1486 1491 1496 1503 1508 1513 1521 1526 1532 1538 1543 1548 1553 1558 1561 1566 1570 1573 1578 1582 1587 1590 1593 1595 1596 1597 1599 1600 1602
1477 1470 1476 1478 1484 1487 1486 1484 1480 1477 1471 1479 1473 1470 1469 1475 1486 1492 1499 1504 1509 1513 1519 1527 1533 1538 1543 1548 1553 1557 1561 1566 1570 1576 1579 1583 1587 1590 1592 1594 1596 1598 1600 1601
1473 1469 1475 1477 1482 1482 1482 1477 1482 1482 1484 1482 1470 1478 1464 1465 1477 1484 1491 1497 1501 1507 1514 1521 1526 1531 1536 1542 1549 1553 1557 1562 1566 1571 1576 1579 1584 1587 1590 1593 1596 1597 1598 1600
1469 1470 1471 1477 1476 1475 1478 1472 1479 1485 1485 1481 1468 1474 1452 1452 1465 1473 1481 1487 1494 1500 1506 1512 1517 1523 1530 1537 1542 1548 1553 1557 1562 1566 1572 1576 1581 1585 1588 1591 1593 1595 1597 1599
1468 1465 1465 1467 1470 1474 1475 1479 1479 1483 1482 1486 1469 1468 1456 1450 1452 1456 1470 1478 1485 1491 1498 1505 1512 1520 1525 1531 1537 1541 1545 1550 1556 1561 1566 1570 1576 1582 1585 1587 1590 1593 1596 1597
1465 1464 1465 1465 1467 1468 1473 1474 1482 1488 1484 1473 1456 1465 1453 1438 1440 1449 1455 1467 1475 1483 1490 1497 1504 1510 1516 1522 1528 1534 1538 1542 1549 1554 1560 1565 1571 1576 1580 1583 1587 1590 1593 1595
1466 1464 1456 1458 1460 1460 1467 1462 1464 1480 1466 1458 1453 1455 1446 1443 1444 1446 1452 1458 1467 1475 1482 1487 1494 1501 1507 1514 1520 1526 1530 1534 1541 1547 1553 1559 1565 1571 1576 1579 1583 1586 1589 1592
1470 1468 1458 1462 1457 1457 1455 1461 1448 1449 1439 1442 1433 1442 1437 1435 1442 1448 1451 1452 1458 1465 1472 1478 1485 1492 1498 1504 1510 1515 1522 1527 1534 1540 1547 1553 1559 1565 1571 1575 1577 1582 1584 1588
1481 1483 1462 1462 1470 1462 1456 1445 1462 1452 1466 1460 1438 1434 1438 1438 1437 1440 1444 1448 1452 1457 1465 1471 1478 1484 1490 1496 1503 1511 1516 1519 1527 1534 1539 1545 1551 1558 1564 1569 1572 1575 1580 1582
1487 1485 1466 1469 1462 1454 1456 1452 1447 1442 1443 1451 1451 1431 1414 1425 1430 1434 1436 1441 1445 1452 1458 1463 1469 1475 1481 1489 1496 1501 1508 1513 1518 1525 1532 1539 1544 1551 1557 1562 1566 1569 1573 1576
1488 1481 1475 1466 1454 1455 1453 1447 1443 1445 1449 1439 1434 1427 1409 1417 1421 1426 1430 1434 1438 1443 1449 1457 1462 1469 1475 1480 1487 1492 1499 1505 1510 1517 1523 1530 1538 1544 1549 1554 1559 1564 1567 1571
1490 1481 1480 1466 1463 1456 1455 1450 1442 1435 1429 1430 1443 1436 1413 1419 1424 1423 1427 1430 1433 1438 1442 1449 1456 1461 1467 1473 1478 1484 1491 1496 1503 1510 1516 1523 1529 1535 1541 1546 1553 1557 1561 1565
1498 1484 1481 1462 1464 1468 1470 1459 1454 1449 1441 1433 1423 1424 1418 1420 1423 1425 1427 1427 1428 1433 1439 1444 1448 1453 1459 1465 1470 1476 1483 1490 1497 1503 1510 1514 1519 1525 1532 1539 1545 1550 1554 1558
1495 1485 1479 1476 1474 1475 1473 1470 1468 1463 1449 1439 1426 1425 1416 1419 1423 1425 1426 1428 1433 1435 1437 1439 1443 1448 1452 1458 1463 1470 1477 1483 1490 1494 1500 1505 1511 1518 1525 1531 1537 1543 1547 1551
1495 1488 1483 1480 1473 1468 1464 1459 1460 1459 1457 1451 1441 1429 1416 1418 1426 1429 1429 1434 1435 1434 1436 1438 1440 1443 1447 1451 1455 1460 1467 1473 1480 1485 1490 1497 1503 1510 1516 1523 1529 1534 1539 1543
1494 1488 1480 1473 1464 1460 1459 1447 1445 1445 1448 1447 1442 1434 1425 1421 1428 1429 1432 1434 1434 1436 1436 1436 1437 1439 1442 1444 1449 1451 1455 1465 1471 1476 1481 1488 1493 1500 1506 1513 1520 1525 1530 1536
1496 1492 1484 1473 1466 1465 1435 1426 1422 1428 1435 1436 1437 1433 1428 1433 1430 1436 1433 1431 1431 1432 1432 1433 1433 1435 1436 1439 1442 1448 1453 1457 1462 1468 1474 1480 1485 1491 1498 1504 1510 1516 1522 1526
1490 1496 1484 1474 1457 1444 1437 1456 1457 1452 1428 1433 1439 1436 1436 1438 1434 1430 1432 1430 1429 1428 1427 1426 1426 1427 1428 1430 1435 1440 1446 1450 1455 1458 1462 1468 1475 1482 1489 1495 1500 1507 1513 1518
1478 1487 1494 1474 1478 1463 1461 1466 1464 1455 1439 1442 1445 1440 1438 1437 1430 1422 1430 1427 1425 1424 1421 1419 1418 1417 1419 1418 1425 1432 1436 1441 1443 1447 1451 1460 1467 1474 1480 1487 1493 1499 1505 1510
1485 1491 1488 1480 1477 1461 1459 1466 1465 1459 1450 1448 1446 1444 1439 1430 1433 1435 1430 1428 1426 1420 1415 1412 1409 1407 1406 1411 1416 1422 1427 1428 1433 1445 1451 1455 1461 1468 1475 1481 1487 1493 1498 1503
1474 1477 1474 1474 1469 1468 1466 1465 1467 1462 1458 1456 1452 1447 1444 1442 1440 1435 1432 1429 1424 1417 1413 1410 1406 1404 1404 1405 1409 1415 1419 1428 1434 1441 1446 1449 1456 1463 1470 1475 1480 1485 1490 1495
1473 1470 1469 1465 1455 1466 1467 1467 1465 1462 1459 1456 1454 1451 1448 1444 1440 1435 1432 1430 1425 1419 1414 1410 1408 1405 1404 1406 1409 1413 1418 1423 1429 1435 1440 1444 1450 1458 1463 1468 1473 1479 1483 1489
1483 1481 1475 1478 1467 1468 1466 1464 1460 1458 1456 1454 1453 1450 1447 1442 1439 1435 1433 1429 1425 1420 1415 1413 1412 1408 1407 1406 1409 1413 1416 1420 1424 1429 1437 1441 1447 1454 1461 1465 1471 1475 1479 1482
1484 1481 1478 1476 1471 1468 1467 1462 1458 1453 1452 1450 1450 1448 1444 1441 1439 1435 1431 1428 1425 1423 1420 1419 1417 1414 1411 1408 1408 1411 1414 1416 1420 1426 1433 1437 1443 1448 1455 1462 1467 1472 1477 1480
1485 1480 1476 1474 1472 1469 1468 1464 1458 1454 1452 1448 1449 1446 1441 1439 1438 1434 1431 1430 1428 1427 1424 1422 1419 1414 1413 1412 1411 1411 1411 1415 1417 1424 1427 1433 1439 1444 1452 1457 1460 1465 1468 1472